Regional Weather Roundup
Issued by NWS

Home | Current Version | Previous Version | Text Only | Print | Product List | Glossary On
Versions: 1 2 3 4 5 6 7 8 9 10 11 12 13 14 15 16 17 18 19 20 21 22 23 24 25 26 27 28 29 30 31 32 33 34 35 36 37 38 39 40 41 42 43 44 45 46 47 48 49 50
000
ASUS45 KPSR 062310
RWRAZ

ARIZONA HOURLY REGIONAL WEATHER ROUNDUP
NATIONAL WEATHER SERVICE PHOENIX AZ
400 PM MST MON JUL 06 2015

NOTE: FAIR INDICATES FEW OR NO CLOUDS BELOW 12,000 FEET WITH NO
SIGNIFICANT WEATHER AND/OR OBSTRUCTIONS TO VISIBILITY.

AZZ001>003-036-070000-
NORTHWEST ARIZONA

CITY           SKY/WX    TMP DP  RH WIND       PRES   REMARKS
BULLHEAD CITY  MOSUNNY  104  55  20 S7        29.81F HX 103
KINGMAN        LGT RAIN  77  60  55 N16       30.06F
$$

AZZ004>008-015-016-018-070000-
NORTH CENTRAL ARIZONA

CITY           SKY/WX    TMP DP  RH WIND       PRES   REMARKS
GRAND CANYON   CLOUDY    75  51  43 W14       30.26F
WILLIAMS       CLOUDY    72  52  49 W9G15     30.34F
PRESCOTT       MOSUNNY   81  49  32 N21       30.16F
FLAGSTAFF      PTSUNNY   71  50  47 NW8       30.29F
PAYSON         MOSUNNY   86  48  26 SW8G15    30.14F
PAGE           PTSUNNY   86  48  26 NE5       30.08F
$$

AZZ009>014-017-070000-
NORTHEAST ARIZONA

CITY           SKY/WX    TMP DP  RH WIND       PRES   REMARKS
WINSLOW        SUNNY     89  47  23 W15       30.09F
SAINT JOHNS    MOSUNNY   86  44  23 W12G18    30.12F
SHOW LOW       MOSUNNY   75  50  41 SW6       30.23F
$$

AZZ023-070000-
GREATER PHOENIX AREA

CITY           SKY/WX    TMP DP  RH WIND       PRES   REMARKS
PHOENIX        MOSUNNY  103  57  21 SW13G20   29.82F HX 102
BUCKEYE        MOSUNNY  100  61  27 W3        29.82F HX 101
GLENDALE       MOSUNNY  102  61  25 S9G18     29.84F HX 103
LUKE AFB       SUNNY    102  57  22 SW7       29.81F HX 101
DEER VALLEY    SUNNY     99  59  26 S8G17     29.84F
SCOTTSDALE     SUNNY     99  58  25 SW10      29.86F
MESA-FALCON    MOSUNNY  104  54  18 SW9         N/A  HX 102
MESA-GATEWAY   MOSUNNY   99  57  25 NW5       29.87
CHANDLER       PTSUNNY  102  57  22 W9        29.85F HX 101
$$

AZZ027-028-070000-
SOUTHWEST MARICOPA COUNTY AND PINAL COUNTY

CITY           SKY/WX    TMP DP  RH WIND       PRES   REMARKS
CASA GRANDE    MOSUNNY   99  63  30 SW5       29.86F HX 100
GILA BEND      PTSUNNY  104  59  22 W10G20    29.80F HX 104
$$

AZZ503-504-507>509-070000-
SOUTHEAST ARIZONA

CITY           SKY/WX    TMP DP  RH WIND       PRES   REMARKS
TUCSON         PTSUNNY   94  60  32 VRB6      29.97F
DAVIS-MONTHAN  PTSUNNY   89  66  45 NW6       29.95F
RYAN FIELD     SUNNY     97  61  30 W13       29.96F
NOGALES        PTSUNNY   86  60  41 VRB7      30.07F
SIERRA VISTA   TSTM      75  61  60 S13       30.12F
DOUGLAS        MOSUNNY   88  57  34 MISG      30.04F
SAFFORD        MOSUNNY   97  56  25 W17G25    29.92F
$$

AZZ020-021-025-026-031-070000-
SOUTHWEST ARIZONA

CITY           SKY/WX    TMP DP  RH WIND       PRES   REMARKS
YUMA           SUNNY    106  59  21 S9        29.78F HX 106
$$

CAZ031-033-041-043-047-048-061-070000-
SOUTHERN CALIFORNIA

CITY           SKY/WX    TMP DP  RH WIND       PRES   REMARKS
DOWNTOWN L.A.  SUNNY     73  60  63 VRB6      29.98F
L.A. AIRPORT   CLOUDY    68  60  75 W9        30.00F
SAN DIEGO      CLOUDY    70  60  70 NW9       30.01F
BURBANK        SUNNY     78  59  51 S12       29.97F
ONTARIO        MOSUNNY   84  57  39 W14G20    29.96F
RIVERSIDE        N/A    N/A N/A N/A MISG      29.95F
PALM SPRINGS   MOSUNNY  102  57  22 NW14      29.83F HX 101
EL CENTRO NAS  MOSUNNY  105  46  13 VRB3      29.78F HX 101
IMPERIAL       MOSUNNY  106  50  15 E8        29.76F HX 103
BLYTHE         SUNNY    105  58  21 S12G20    29.79F HX 105
NEEDLES        MOSUNNY  106  50  15 VRB3      29.81F HX 103
$$

NVZ020-UTZ003-070000-
SOUTHERN NEVADA-UTAH

CITY           SKY/WX    TMP DP  RH WIND       PRES   REMARKS
LAS VEGAS      CLOUDY    96  53  23 S15       29.88F
SALT LAKE CITY TSTM      77  54  44 S13       30.05R
$$

NMZ009-TXZ055-070000-
NEW MEXICO-WEST TEXAS

CITY           SKY/WX    TMP DP  RH WIND       PRES   REMARKS
ALBUQUERQUE    PTSUNNY   79  56  45 E28G40    30.06F
EL PASO        PTSUNNY   95  53  24 NW10      29.94F
$$


........................KEY........................
SKY/WX - SKY CONDITION/WEATHER
TMP    - TEMPERATURE IN FAHRENHEIT
DP     - DEW POINT IN FAHRENHEIT
RH     - RELATIVE HUMIDITY IN PERCENT
WIND   - DIRECTION AND SPEED IN MILES PER HOUR (MPH)
VRB    - VARIABLE WIND DIRECTION
PRES   - MEAN SEA LEVEL PRESSURE IN INCHES OF MERCURY
         F - FALLING PRESSURE   R - RISING PRESSURE
         S - STEADY PRESSURE
VSB    - VISIBILITY IN MILES
HX     - HEAT INDEX IN FAHRENHEIT
WCI    - WIND CHILL INDEX IN FAHRENHEIT
TC     - TEMPERATURE IN CELSIUS WHICH IS ALSO KNOWN AS
         TEMPERATURE IN CENTIGRADE
AFB    - AIR FORCE BASE
         LUKE AFB IS LUKE AIR FORCE BASE
         DAVIS-MONTHAN IS DAVIS-MONTHAN AIR FORCE BASE
NAS    - NAVAL AIR STATION
         EL CENTRO NAS IS EL CENTRO NAVAL AIR STATION
N/A    - NOT AVAILABLE



USA.gov is the U.S. government's official web portal to all federal, state and local government web resources and services.